Weather History for North Myrtle Beach, SC

Change the Weather History Date:

Monday, April 22, 2013

  Actual Average Record
Temperature  
Mean Temperature 57 °F 63 °F  
Max Temperature 68 °F 73 °F 92 °F (2002)
Min Temperature 45 °F 54 °F 34 °F (1950)
Degree Days  
Heating Degree Days 8 3  
Month to date heating degree days 105 120  
Since 1 July heating degree days 2371 2402  
Cooling Degree Days 0 2  
Month to date cooling degree days 26 21  
Year to date cooling degree days 30 24  
Growing Degree Days 6 (Base 50)    
Moisture  
Dew Point 44 °F    
Average Humidity 68    
Maximum Humidity 83    
Minimum Humidity 52    
Precipitation  
Precipitation 0.00 in 0.10 in 0.85 in (2006)
Month to date precipitation 4.21 2.24  
Year to date precipitation 12.45 13.27  
Sea Level Pressure  
Sea Level Pressure 30.25 in    
Wind  
Wind Speed 13 mph (NNE)    
Max Wind Speed 21 mph    
Max Gust Speed 29 mph    
Visibility 10 miles    
Events      
T = Trace of Precipitation, MM = Missing Value Source: NWS Daily Summary

Daily Weather History Graph

Daily Weather History Graph

Search for Another Location

Airport:

Trip Planner

Search our weather history database for the weather conditions in past years. The results will help you decide how hot, cold, wet, or windy it might be!

Date:

Astronomy

Apr. 22, 2013 Rise Set
Actual Time 6:35 AM EDT 7:51 PM EDT
Civil Twilight 6:09 AM EDT 8:17 PM EDT
Nautical Twilight 5:38 AM EDT 8:48 PM EDT
Astronomical Twilight 5:06 AM EDT 9:21 PM EDT
Moon 4:46 PM EDT (4/22) 4:19 AM EDT (4/22)
Length of Visible Light 14h 08m
Length of Day
13h 16m
Waxing Gibbous, 87% of the Moon is Illuminated
Apr 22
Waxing Gibbous
Apr 25
Full
May 2
Last Quarter
May 9
New
May 18
First Quarter

Hourly Weather History & Observations

Time (EDT) Temp. Windchill Dew Point Humidity Pressure Visibility Wind Dir Wind Speed Gust Speed Precip Events Conditions
12:53 AM 50.0 °F - 35.1 °F 57% 30.36 in 10.0 mi NE 16.1 mph 24.2 mph N/A   Clear
1:53 AM 48.0 °F - 35.1 °F 61% 30.34 in 10.0 mi NNE 13.8 mph 19.6 mph N/A   Clear
2:53 AM 46.9 °F - 36.0 °F 66% 30.32 in 10.0 mi NNE 12.7 mph 24.2 mph N/A   Clear
3:53 AM 46.9 °F - 37.9 °F 71% 30.30 in 10.0 mi NNE 16.1 mph 24.2 mph N/A   Mostly Cloudy
4:53 AM 46.0 °F 40.6 °F 39.0 °F 76% 30.30 in 10.0 mi NE 11.5 mph 19.6 mph N/A   Scattered Clouds
5:53 AM 45.0 °F 38.9 °F 39.0 °F 80% 30.28 in 10.0 mi NNE 12.7 mph 20.7 mph N/A   Clear
6:53 AM 45.0 °F 38.5 °F 39.9 °F 82% 30.30 in 10.0 mi NNE 13.8 mph - N/A   Mostly Cloudy
7:53 AM 46.0 °F 41.0 °F 39.9 °F 79% 30.30 in 10.0 mi NNE 10.4 mph 23.0 mph N/A   Scattered Clouds
8:53 AM 48.0 °F - 41.0 °F 77% 30.30 in 10.0 mi NNE 12.7 mph 24.2 mph N/A   Partly Cloudy
9:53 AM 48.9 °F - 42.1 °F 77% 30.30 in 10.0 mi NNE 15.0 mph 20.7 mph N/A   Mostly Cloudy
10:53 AM 53.1 °F - 43.0 °F 69% 30.29 in 10.0 mi North 12.7 mph 19.6 mph N/A   Clear
11:53 AM 60.1 °F - 46.9 °F 62% 30.27 in 10.0 mi NNE 16.1 mph 23.0 mph N/A   Clear
12:53 PM 61.0 °F - 46.9 °F 60% 30.25 in 10.0 mi NNE 13.8 mph - N/A   Clear
1:53 PM 64.0 °F - 48.0 °F 56% 30.24 in 10.0 mi North 15.0 mph 19.6 mph N/A   Clear
2:53 PM 64.9 °F - 48.0 °F 54% 30.21 in 10.0 mi NNE 12.7 mph 21.9 mph N/A   Clear
3:53 PM 66.0 °F - 48.9 °F 54% 30.17 in 10.0 mi NNE 11.5 mph 20.7 mph N/A   Clear
4:53 PM 66.9 °F - 48.9 °F 52% 30.15 in 10.0 mi NNE 13.8 mph 20.7 mph N/A   Overcast
5:53 PM 64.0 °F - 46.9 °F 54% 30.17 in 10.0 mi NNE 16.1 mph 24.2 mph N/A   Overcast
6:53 PM 62.1 °F - 46.9 °F 58% 30.17 in 10.0 mi NNE 13.8 mph 19.6 mph N/A   Overcast
7:53 PM 59.0 °F - 46.0 °F 62% 30.17 in 10.0 mi North 10.4 mph - N/A   Partly Cloudy
8:53 PM 57.9 °F - 46.9 °F 67% 30.19 in 10.0 mi NE 12.7 mph 21.9 mph N/A   Overcast
9:01 PM 57.2 °F - 46.4 °F 67% 30.18 in 10.0 mi NNE 15.0 mph 25.3 mph N/A   Overcast
9:53 PM 57.0 °F - 46.9 °F 69% 30.19 in 10.0 mi NNE 11.5 mph 25.3 mph N/A   Overcast
10:53 PM 55.9 °F - 46.9 °F 72% 30.20 in 10.0 mi North 10.4 mph 19.6 mph N/A   Overcast
11:53 PM 55.0 °F - 46.9 °F 74% 30.19 in 10.0 mi NNE 11.5 mph - N/A   Overcast